Location: Unspecified
(43.4680°N, 87.1740°E)
Time: 19:37:52
(UTC+00:00)

BREEZE-M DEB (TANK) - Pass Details

Date: 17 January 2020
Orbit: 299 x 14270 km, 49.6° (Epoch: 25 February)

Event Time Altitude Azimuth Distance (km) Brightness Sun altitude
Exits shadow 23:56:30 30° 198° (SSW) 703 3.1 -18.5°
Drops below altitude 10° 23:58:03 10° 156° (SSE) 1,199 4.8 -18.2°
Sets 23:59:40 0° 144° (SE) 1,979 6.2 -17.9°
